RH
67 66 64 60 57 54 51 51 53 49 42 40 38 35 30 24 18 13 8 7 7 6 6 6 6 6 6 7 8 9 12 17 26 31 32 31 35 43 44 44 57 73 83 84 83 76 65 58 55 53 55 58 56 52 48 42 36 30 26 25 26 29
67 65 64 61 58 57 54 52 53 52 47 43 40 37 33 26 20 14 9 6 6 5 5 5 6 6 7 7 8 8 9 14 23 30 33 31 33 38 41 54 72 84 90 90 88 84 72 64 60 57 54 56 59 59 57 54 50 45 38 34 34 34
65 64 62 61 60 59 58 55 53 53 50 46 42 39 34 27 22 15 10 7 5 5 5 5 6 6 7 8 8 8 8 12 20 28 32 31 30 33 44 67 83 85 88 86 84 84 77 70 65 60 55 56 61 60 60 60 58 54 47 43 39 36
64 63 63 64 64 64 63 59 55 54 52 48 44 41 36 29 23 17 11 8 6 5 5 6 6 6 7 8 8 8 8 11 18 27 32 29 26 30 48 75 85 83 83 81 81 85 85 81 74 66 58 57 59 58 58 60 59 54 49 45 40 36
66 64 66 69 69 67 65 61 58 56 54 50 47 43 37 30 24 18 12 9 7 5 5 5 6 6 7 8 9 8 8 11 17 26 30 26 22 30 54 77 83 81 79 78 82 90 93 92 85 74 63 57 57 56 56 57 54 52 49 47 45 41
69 68 71 72 70 68 65 62 60 59 56 52 49 44 38 31 25 19 14 10 8 6 5 5 5 6 8 9 9 8 8 13 19 26 28 24 22 34 59 76 79 79 78 79 85 93 98 99 92 79 66 59 56 54 53 52 51 52 53 51 49 43
72 72 74 73 69 68 66 64 62 60 58 54 50 45 39 32 25 20 15 11 8 6 5 5 5 6 8 9 9 8 10 16 22 28 28 23 28 44 63 74 77 78 79 81 86 94 99 100 93 80 70 62 57 56 55 55 55 56 57 53 48 41
75 75 75 72 69 69 67 66 64 62 59 55 51 45 38 31 24 20 16 12 8 6 5 4 5 7 9 9 9 10 13 20 26 30 28 26 38 55 66 73 75 79 81 79 79 86 93 94 90 80 74 68 64 66 65 63 61 60 57 51 44 42
78 76 73 70 69 70 69 67 66 63 59 55 51 44 37 30 24 21 17 14 9 6 5 4 5 6 8 10 11 13 18 25 28 30 26 28 46 61 67 70 73 78 81 76 74 77 81 84 83 78 77 76 74 74 70 66 64 60 54 48 46 48
76 74 72 71 71 71 70 69 65 62 59 54 49 43 35 30 26 23 20 16 12 8 5 4 5 6 8 11 14 19 24 28 29 27 23 28 47 62 67 69 72 77 79 77 76 74 73 75 75 74 79 80 79 75 70 67 63 57 53 50 50 52
75 74 74 73 73 72 70 68 65 61 58 54 48 42 36 33 29 26 22 18 14 10 6 4 5 6 9 13 18 24 29 31 29 24 20 26 43 58 65 69 73 76 77 76 75 74 73 72 70 71 76 79 79 75 71 66 61 57 56 54 54 54
72 75 75 74 73 73 71 67 64 61 57 52 47 42 38 35 31 27 24 20 16 11 7 5 5 8 12 18 24 28 32 33 28 21 17 23 39 54 63 71 77 78 78 76 73 73 74 74 72 73 76 78 79 76 72 66 60 58 57 56 57 57
69 75 75 74 73 73 71 68 63 59 55 51 46 42 38 35 31 27 24 21 16 11 7 6 7 11 17 25 30 31 33 32 26 18 15 21 37 53 64 74 81 82 81 77 73 73 74 73 73 75 78 81 81 77 73 68 62 59 59 59 59 60
68 77 76 73 74 72 70 66 61 57 53 48 45 41 38 35 31 27 24 20 15 11 7 6 9 16 23 31 33 34 35 32 25 18 15 19 32 47 63 76 83 85 82 76 73 72 72 72 74 79 83 86 83 76 72 69 64 63 64 63 62 64
68 78 78 73 73 71 68 64 59 54 50 48 45 43 40 36 32 28 23 19 15 10 7 6 12 22 29 33 35 37 37 31 24 20 18 20 27 41 60 73 79 80 80 76 73 74 75 78 82 87 89 90 86 79 74 71 68 68 67 66 67 68
71 80 78 74 73 70 67 63 58 54 52 51 48 43 40 37 32 28 22 18 14 10 7 7 15 29 35 35 38 41 37 31 27 25 25 24 27 39 56 67 71 74 77 76 74 76 80 85 92 95 95 95 91 84 79 76 73 70 68 69 70 67
79 81 78 76 73 68 65 62 57 54 54 53 47 40 37 35 31 26 20 16 13 11 9 11 22 34 38 39 43 44 38 34 34 35 34 32 33 41 53 62 66 71 76 77 74 77 83 88 96 100 100 99 95 90 86 81 75 71 70 71 70 64
86 81 80 79 71 66 63 60 57 54 52 50 45 39 35 32 30 26 20 15 13 12 10 15 27 33 37 43 49 47 41 42 44 43 40 40 42 48 57 64 66 69 76 80 78 80 83 86 94 100 100 99 96 91 86 80 74 72 72 71 68 61
82 78 82 78 68 65 62 60 60 57 53 49 44 40 35 31 29 26 21 16 14 13 11 15 24 28 32 44 53 50 46 49 51 46 43 44 48 54 62 68 67 68 73 79 81 83 84 87 95 97 94 94 92 87 81 75 72 70 70 69 65 56
74 75 82 76 66 64 63 64 63 60 56 49 44 41 36 31 28 26 24 19 14 13 12 14 18 21 29 44 54 53 51 56 56 48 43 46 53 58 63 67 67 68 70 74 79 83 86 91 96 93 87 86 85 80 74 70 68 69 69 67 59 47
73 79 82 71 64 66 68 68 65 63 56 48 46 44 40 35 29 25 25 21 16 13 13 13 14 20 31 45 54 54 55 60 59 50 43 47 55 58 59 61 66 70 71 71 74 79 85 89 89 84 80 79 77 73 68 66 66 66 65 59 50 40
80 85 80 67 67 73 74 70 65 63 56 49 49 47 43 39 31 26 27 24 16 12 13 12 13 22 33 44 55 58 59 63 62 51 43 45 52 54 55 59 67 73 71 69 71 75 79 80 77 72 71 71 69 66 63 62 63 62 58 51 43 37
88 86 76 71 76 79 75 67 63 63 58 52 52 49 45 42 35 29 30 26 15 11 13 12 14 22 29 40 57 62 60 63 61 50 41 42 48 51 55 61 70 75 71 69 71 74 75 73 68 64 61 62 61 60 57 57 58 59 55 48 41 36
88 81 77 81 82 76 70 64 62 63 60 56 54 49 45 44 39 33 33 28 15 10 12 11 14 20 23 36 57 64 62 61 56 47 40 40 44 50 57 64 73 75 72 71 73 75 73 68 63 59 57 57 56 55 54 54 57 57 52 46 41 36
84 82 83 82 75 67 62 60 60 61 62 61 54 47 45 46 41 35 34 27 14 9 11 11 14 20 22 34 55 63 60 56 50 45 41 39 41 47 57 67 75 77 74 73 75 76 71 63 59 57 55 54 54 54 55 56 58 57 51 45 41 36
85 82 74 67 62 59 56 55 56 57 61 59 51 45 45 46 40 34 32 25 13 8 10 11 16 22 21 31 53 60 54 49 46 45 42 39 38 42 55 69 77 79 76 76 78 77 69 59 56 55 54 53 53 54 56 58 59 57 51 45 40 35
87 74 61 57 53 50 49 49 50 51 56 55 47 43 45 47 41 33 29 21 10 7 10 12 18 22 17 28 50 56 50 47 45 45 44 40 37 38 52 68 77 79 78 77 77 75 67 57 53 53 51 51 52 55 58 60 58 52 47 43 37 32
87 67 58 57 50 44 45 47 47 49 52 52 45 40 45 50 43 34 28 16 8 8 10 13 17 17 15 29 51 55 50 46 45 47 45 40 37 40 52 67 77 81 79 75 72 70 64 56 51 49 48 49 52 56 59 59 52 44 41 39 34 29
80 67 64 63 54 47 46 48 50 51 52 50 43 40 45 49 43 33 23 11 6 8 12 13 15 20 28 43 58 57 50 45 43 44 43 38 39 44 56 69 79 82 80 74 68 65 62 55 49 46 46 49 52 56 58 53 44 39 36 34 30 27
66 66 65 64 60 54 49 48 46 45 49 50 42 41 45 44 38 29 16 8 6 9 12 11 21 44 56 61 64 56 46 40 38 40 40 39 40 47 58 71 79 83 81 76 68 63 59 53 49 48 49 51 54 57 55 47 40 36 33 30 28 28
57 62 60 59 57 55 51 46 39 35 41 47 42 41 42 37 32 23 12 7 6 9 11 12 35 71 76 64 59 52 43 38 36 39 40 39 40 46 57 69 78 84 85 80 71 62 57 53 51 53 55 57 57 55 49 43 38 35 31 30 31 32
58 61 59 55 51 49 46 41 36 33 38 44 40 36 34 30 26 17 8 6 6 10 11 10 33 68 71 58 52 45 40 36 35 39 40 37 40 47 58 69 77 85 89 84 74 63 58 56 56 58 60 61 57 50 43 39 37 35 35 35 37 39
60 60 56 53 48 43 40 39 38 37 41 40 32 27 26 25 21 11 5 6 7 10 11 13 30 53 56 50 46 40 35 33 34 39 38 36 41 50 61 71 79 85 89 87 77 66 60 60 61 63 62 58 52 45 40 38 38 38 39 41 42 44
55 53 51 48 40 33 35 43 45 43 41 32 22 20 21 20 15 7 5 6 7 10 11 17 34 50 52 45 39 33 31 34 37 39 37 36 42 51 62 73 81 86 89 87 79 69 64 64 66 65 60 53 47 43 40 39 40 41 42 44 46 49
47 46 46 40 32 34 45 54 51 44 36 24 16 17 18 17 10 6 6 5 8 10 13 27 44 53 53 42 30 29 34 38 40 39 37 37 42 51 61 72 83 89 90 86 79 72 67 66 66 62 55 49 45 43 43 42 44 46 47 48 51 55
41 42 40 34 36 46 56 56 49 41 31 19 14 15 16 14 9 6 5 5 8 9 13 31 45 47 41 31 24 28 36 39 39 39 37 35 40 49 58 71 84 92 91 85 78 72 68 66 63 56 50 47 47 47 48 49 50 52 54 56 58 66
35 35 33 36 42 49 52 52 47 38 27 18 14 14 15 12 8 7 5 5 9 10 9 18 30 35 33 26 23 27 32 37 38 38 36 33 34 38 49 64 81 91 92 84 76 70 66 63 56 51 49 49 50 53 55 56 55 54 58 60 65 79
Wind_Speed
14 14 14 14 14 14 14 15 15 15 15 15 15 15 16 16 15 15 13 12 11 10 8 7 7 7 8 9 9 10 11 11 10 10 11 12 12 11 11 11 10 9 8 8 8 9 8 8 9 8 6 5 6 7 9 10 11 12 12 13 13 14
15 15 16 16 15 15 15 15 16 15 15 15 15 15 16 16 16 15 13 12 11 10 8 8 8 8 8 9 10 11 11 11 11 11 11 12 12 11 11 11 10 8 8 8 8 9 8 8 9 9 8 6 6 8 9 10 11 12 13 13 13 13
17 19 19 18 17 16 15 15 16 15 14 15 15 15 16 16 16 15 13 12 11 10 9 9 8 9 9 10 11 11 12 12 11 11 11 12 12 12 11 10 9 8 8 8 9 9 8 8 9 10 9 7 7 9 10 10 11 12 12 12 13 13
20 21 20 19 18 16 15 15 15 15 14 15 15 16 16 16 15 14 13 12 12 11 10 10 10 10 10 10 11 12 12 12 12 11 11 12 12 12 11 10 9 9 10 10 10 9 7 8 9 11 11 8 9 10 11 10 11 11 11 12 13 13
19 19 19 19 18 16 14 14 14 14 14 14 15 15 16 16 16 14 13 12 13 12 11 11 11 11 10 11 11 12 12 12 12 12 11 12 12 11 11 11 11 12 12 12 11 9 7 9 10 11 11 10 11 12 12 11 11 12 12 13 13 13
17 17 18 18 16 14 13 12 13 13 13 14 15 15 16 16 16 15 13 13 14 13 13 12 12 11 11 11 12 12 12 12 12 12 11 11 11 11 11 11 13 14 13 12 10 9 8 9 10 11 12 12 12 12 12 12 12 12 13 13 14 13
17 18 17 16 14 13 12 12 12 12 13 14 15 15 16 16 16 15 14 14 15 14 14 13 13 12 12 12 13 12 12 12 12 12 11 11 10 11 11 12 13 14 13 10 9 8 9 10 11 11 12 12 12 12 13 13 13 13 12 13 13 14
18 18 16 14 13 13 12 12 12 13 13 14 15 15 15 16 16 15 16 16 15 15 15 15 14 13 13 13 13 12 12 12 12 12 11 10 10 10 11 12 13 13 11 8 7 8 9 11 12 12 11 11 11 12 13 14 14 13 12 12 13 14
17 17 15 14 13 13 13 12 13 13 14 15 15 15 15 15 15 16 16 17 16 16 16 16 15 14 14 13 13 12 11 12 12 12 11 10 10 9 10 11 12 11 9 7 7 8 10 11 12 12 11 11 11 13 14 14 14 12 11 12 12 13
16 16 16 15 13 13 13 12 13 13 14 15 15 15 15 15 15 16 17 17 18 18 17 17 16 16 15 13 12 11 11 12 13 13 12 10 10 9 10 10 11 11 10 9 10 11 12 13 13 12 10 11 12 14 14 14 13 12 12 12 12 12
15 17 18 18 14 12 13 12 12 14 14 15 15 15 15 15 15 16 17 18 19 19 18 18 17 16 15 13 12 11 11 12 13 13 12 11 10 10 10 10 11 12 12 12 13 13 13 13 13 11 10 10 13 15 14 13 13 12 12 12 12 13
17 18 19 19 15 12 13 12 12 14 15 15 15 16 16 16 16 17 18 19 20 20 19 18 18 17 15 14 13 12 12 12 13 13 12 11 11 11 11 10 11 13 14 14 14 13 13 13 13 11 10 11 14 15 14 13 13 13 12 12 13 14
19 18 19 20 16 13 13 13 12 13 15 16 16 16 17 17 18 19 20 20 21 20 19 18 18 17 16 14 13 13 12 12 13 13 12 11 11 11 11 11 12 14 15 15 14 13 12 13 13 13 12 12 14 14 14 14 13 13 13 13 14 15
21 19 19 20 17 13 13 13 13 14 15 16 17 17 18 19 19 20 21 21 21 20 19 18 18 17 16 15 14 14 13 13 13 13 12 11 11 11 11 11 12 14 15 16 14 12 11 12 13 13 12 12 13 13 13 14 13 14 14 14 15 16
23 21 20 20 17 13 12 14 15 15 16 17 18 18 19 19 20 20 21 22 21 21 20 19 18 18 17 16 15 14 13 13 13 13 13 12 11 11 11 12 13 15 16 16 15 12 11 11 12 13 13 12 12 13 13 14 14 14 14 15 16 17
23 22 20 20 17 12 13 15 16 16 16 17 17 17 18 19 19 20 21 22 21 21 20 19 19 19 18 17 16 15 13 13 13 13 13 12 12 12 12 13 14 15 16 17 16 14 12 11 12 13 12 12 13 13 13 14 15 15 15 15 16 18
23 22 21 19 16 12 13 16 17 17 16 16 17 17 18 19 19 20 21 21 21 21 20 20 19 19 19 17 16 15 14 13 13 14 14 13 12 12 13 14 15 15 16 17 17 15 14 12 12 12 12 12 12 13 14 15 15 14 15 15 17 19
23 23 21 19 16 13 13 16 18 17 17 18 19 20 20 20 20 20 21 21 21 21 21 20 20 20 19 18 17 15 14 13 13 14 14 14 13 13 14 15 16 16 17 18 18 16 15 14 12 13 13 12 12 13 14 15 14 14 15 16 18 20
24 24 21 19 17 15 14 16 18 18 19 19 19 21 21 21 21 21 22 22 22 21 21 21 21 21 20 19 17 16 14 14 14 14 14 14 14 14 15 16 17 17 17 17 18 17 16 15 13 14 13 11 12 13 14 14 14 15 15 17 20 22
26 25 21 19 17 16 16 17 18 20 20 20 19 20 22 22 22 22 22 23 22 22 21 21 22 22 21 19 18 16 15 15 15 15 15 15 14 15 16 17 17 17 17 17 17 17 16 15 14 14 13 11 12 13 14 14 15 16 17 19 21 23
26 25 21 19 18 18 18 19 19 21 21 20 20 21 24 24 23 23 23 23 23 22 22 22 22 21 21 20 19 16 15 16 16 16 16 15 15 15 16 17 18 18 17 17 17 17 16 15 14 14 13 11 12 13 14 15 16 17 19 20 22 23
26 24 22 20 19 20 21 21 20 21 22 21 21 23 25 25 24 24 24 24 23 22 22 22 22 22 22 21 20 17 17 17 17 17 17 16 15 15 16 17 17 18 17 17 16 16 16 15 15 14 12 12 13 13 14 16 16 18 20 21 22 23
24 24 22 20 21 23 24 23 21 21 22 23 23 24 26 26 26 26 25 24 24 23 22 23 22 22 23 22 21 19 18 18 18 18 17 16 15 14 15 16 17 18 18 17 16 16 16 15 15 14 13 13 14 14 15 16 16 18 20 21 23 23
22 23 22 22 24 25 25 24 23 23 23 24 24 24 26 27 27 27 26 25 24 23 23 23 23 23 23 23 21 20 19 18 18 18 18 17 15 14 14 15 16 18 18 17 16 16 16 16 16 15 14 14 14 15 16 17 17 19 21 22 23 24
24 24 24 25 27 26 25 26 26 25 25 25 25 24 26 27 28 28 28 26 25 23 23 23 23 23 23 23 22 21 20 18 18 18 18 17 16 14 14 14 16 17 18 17 16 16 16 16 16 15 14 14 14 15 16 17 18 20 21 23 24 25
25 25 26 27 28 26 27 29 29 28 27 26 25 24 26 29 29 29 28 27 25 24 23 23 23 23 23 22 22 22 20 19 18 17 17 17 16 14 13 14 15 17 17 16 16 17 17 16 16 15 15 14 14 15 16 18 20 21 22 23 24 25
27 26 25 26 27 27 29 31 32 32 29 27 26 26 28 30 30 29 28 27 25 24 23 23 23 23 23 22 21 22 21 20 18 17 17 17 16 15 13 14 15 16 17 16 17 17 17 16 16 16 15 15 15 16 17 19 21 22 23 24 25 26
30 28 26 26 27 28 30 33 34 34 32 28 27 28 29 31 32 30 28 27 25 24 23 23 23 22 22 21 22 23 22 20 18 17 17 17 17 15 14 14 15 15 16 16 17 17 17 17 17 17 16 16 16 17 19 21 22 23 24 25 26 26
33 30 29 30 30 30 31 33 35 36 33 30 29 30 30 31 32 30 28 27 25 24 23 23 23 22 20 20 22 23 22 19 18 17 17 17 16 15 14 14 14 14 15 16 17 17 18 18 17 17 17 17 18 19 20 22 23 24 25 26 27 27
31 32 33 34 34 34 35 36 38 39 36 32 31 31 31 31 31 30 28 26 25 24 23 23 23 20 18 19 21 22 21 20 19 18 18 17 16 15 15 14 14 14 15 16 17 18 18 18 18 17 18 18 19 20 21 22 23 24 25 26 27 27
29 31 33 34 35 37 38 39 40 40 38 34 32 30 30 31 31 30 28 26 24 23 22 21 21 19 19 20 20 21 21 20 20 19 18 17 16 16 15 15 14 14 15 16 17 18 18 18 18 18 18 19 20 21 21 22 23 24 25 26 27 28
31 32 33 33 35 38 39 40 41 40 37 34 30 28 29 31 31 30 28 25 24 22 21 20 19 19 20 21 20 21 21 21 20 19 18 18 17 16 15 15 15 15 15 16 17 18 19 19 18 18 19 19 20 21 21 22 23 25 26 27 28 29
33 34 34 35 37 39 40 40 40 39 35 31 27 27 29 30 30 29 27 24 23 21 20 19 19 20 21 22 21 21 22 22 20 19 19 18 17 16 16 15 15 15 16 17 17 18 19 19 19 19 19 19 20 21 22 23 24 25 26 28 29 30
35 35 36 36 37 39 38 37 38 37 33 28 25 27 29 30 29 28 25 24 23 21 20 18 18 20 21 22 23 22 21 21 20 19 19 19 18 17 16 16 16 16 16 17 18 19 19 19 19 19 19 20 20 21 22 23 25 26 28 29 30 32
36 36 36 35 36 35 34 34 36 35 30 25 25 27 29 29 28 26 25 24 22 21 20 18 18 20 22 23 23 21 21 21 21 20 20 19 18 17 17 16 16 17 17 18 18 19 19 19 19 19 19 20 20 21 22 24 26 28 29 31 32 33
37 36 35 33 32 31 32 32 34 34 30 25 25 27 28 29 28 26 25 23 21 21 20 18 19 22 23 24 23 21 21 22 22 21 20 19 18 17 17 17 18 18 18 18 19 19 19 19 19 19 20 20 20 21 23 25 27 29 30 31 33 34
35 33 31 29 29 31 32 33 34 34 30 26 26 27 28 29 28 26 24 22 21 21 21 20 21 22 23 24 23 22 22 23 22 21 20 19 18 18 18 18 18 18 19 19 19 19 20 20 20 20 20 20 21 22 24 26 28 30 31 32 33 34
Wind_Direction
284 293 301 308 317 321 318 311 307 309 312 318 325 332 336 337 342 344 343 338 331 329 329 331 332 334 335 335 334 330 323 313 305 303 308 313 314 311 310 313 310 306 304 306 301 290 288 286 285 283 285 298 301 294 290 289 289 285 281 282 285 288
286 296 302 305 310 316 317 310 304 304 308 313 319 326 331 332 336 340 341 336 329 325 324 324 324 328 330 332 333 329 322 313 306 302 305 311 312 310 311 311 309 306 306 304 293 285 283 279 277 278 282 289 289 285 285 288 288 284 283 285 285 286
287 296 300 304 307 311 314 310 303 301 304 309 313 320 325 327 330 336 339 333 326 321 318 318 319 323 326 330 332 328 320 313 307 302 304 308 310 310 311 309 304 304 305 302 294 288 283 276 275 279 282 282 275 276 279 284 284 283 284 286 285 284
285 291 296 302 306 308 310 307 303 299 300 304 309 316 320 322 326 331 336 330 322 316 313 313 315 319 323 328 330 326 321 314 307 302 302 306 308 308 309 303 296 299 304 304 300 293 284 276 274 278 280 274 268 271 276 282 284 285 287 287 287 287
287 289 294 299 304 308 309 306 302 298 297 300 305 311 316 319 322 327 331 327 318 312 309 310 312 315 319 325 328 325 321 315 307 301 302 304 305 304 304 299 293 298 304 307 303 291 280 276 274 276 277 271 267 272 277 281 285 289 290 289 288 287
291 293 296 299 305 310 310 305 300 299 296 296 301 307 312 315 319 323 326 324 317 309 306 308 310 311 316 322 325 325 320 313 305 301 301 303 302 300 299 296 295 300 305 307 300 287 275 274 273 272 273 270 270 276 281 283 284 287 289 288 287 285
291 294 295 297 306 312 311 306 301 299 296 295 298 303 308 312 316 320 323 322 316 310 307 307 308 309 313 320 324 324 318 309 303 300 300 301 299 296 296 297 299 302 305 305 297 283 272 269 268 269 270 270 275 282 283 283 281 283 286 286 283 281
290 292 293 297 307 312 311 307 302 300 296 294 297 301 306 310 315 319 322 322 317 312 309 307 307 307 312 320 324 322 314 306 302 301 300 299 296 293 296 301 302 301 300 300 296 282 271 267 267 269 269 267 274 282 283 281 279 281 283 281 277 278
289 290 289 296 306 310 310 307 303 299 296 294 296 300 304 308 314 319 322 322 318 313 309 306 306 308 312 320 322 317 310 306 304 302 299 298 294 290 298 303 300 296 289 290 295 289 282 274 270 271 265 259 268 279 280 279 279 279 277 275 276 281
284 286 287 295 303 307 307 306 301 296 293 294 296 299 302 307 313 318 321 320 317 313 309 307 307 309 314 318 318 313 309 308 306 302 298 296 290 286 294 299 296 289 283 286 293 295 291 281 276 272 259 253 268 281 282 280 279 275 272 274 281 286
280 281 285 291 296 301 302 301 297 293 292 294 297 299 301 305 311 316 318 317 314 312 309 307 308 310 313 316 315 312 310 308 304 300 296 292 287 285 289 292 290 286 285 288 291 293 291 283 279 273 260 259 274 282 283 280 277 274 275 282 289 292
281 278 281 285 290 295 296 294 291 289 291 294 297 298 300 303 309 313 314 313 312 310 308 307 308 309 312 315 315 314 311 306 302 298 292 288 284 284 287 287 285 284 286 289 289 289 286 281 278 277 271 270 276 279 278 275 274 276 282 289 292 293
280 274 276 280 285 290 290 289 286 286 289 292 295 296 299 302 306 310 310 310 310 309 307 307 306 307 310 315 316 315 311 305 301 297 292 286 282 282 284 285 282 282 285 288 288 285 280 278 279 279 275 272 275 276 274 273 275 280 285 289 291 293
276 268 269 274 279 284 285 285 283 284 287 290 293 295 298 301 305 308 308 309 309 309 307 306 305 306 310 316 317 315 310 305 300 298 294 288 282 279 281 283 282 283 287 290 289 284 275 274 276 276 271 270 273 272 272 275 278 281 285 288 291 293
270 265 265 270 274 276 279 280 282 286 290 291 292 294 297 300 304 306 307 308 309 310 308 306 305 308 313 317 317 313 307 303 300 299 296 290 283 278 278 281 282 285 289 292 292 286 276 269 269 270 267 266 267 269 273 277 278 281 284 288 291 292
265 263 265 268 267 267 273 277 283 289 292 293 295 298 301 304 305 305 307 308 310 310 308 306 308 312 316 317 313 308 304 302 300 299 297 292 285 278 277 279 283 286 289 291 292 289 283 273 267 266 264 263 266 270 273 273 274 278 282 286 290 291
260 262 266 265 259 259 269 277 285 290 291 293 299 304 307 307 307 306 307 309 310 310 309 308 311 314 315 313 309 303 301 300 299 299 298 293 285 278 277 280 283 286 288 289 290 289 285 277 267 262 260 262 266 267 266 267 270 274 280 285 288 290
255 261 265 259 253 257 267 278 285 288 289 292 299 303 305 305 307 307 308 309 311 311 310 310 310 312 311 308 304 299 296 295 296 298 297 293 285 278 278 281 282 284 286 286 287 286 282 277 270 262 259 259 261 262 262 265 269 275 280 284 286 288
253 258 259 251 251 259 267 276 283 288 290 293 299 303 302 301 303 306 308 310 311 312 311 309 308 308 307 304 300 294 291 292 294 296 293 288 283 278 278 279 281 281 282 281 281 281 278 276 272 266 261 258 258 260 264 269 274 280 283 283 284 287
256 257 252 246 251 261 267 275 281 286 290 294 301 302 300 300 301 303 307 310 310 311 310 308 306 305 304 301 296 290 286 288 291 292 289 283 279 277 277 278 280 279 278 277 276 276 275 272 267 263 259 256 258 261 267 274 279 282 283 283 285 288
258 253 244 242 252 262 268 272 276 283 289 294 300 300 300 300 300 301 305 310 311 310 308 304 302 302 302 299 292 285 283 285 288 289 286 281 277 277 278 279 279 278 276 274 273 272 271 266 259 256 254 255 258 263 270 276 280 282 284 286 289 291
254 247 239 241 252 262 268 269 272 280 286 292 296 298 299 300 300 300 304 309 310 308 304 300 298 299 299 296 289 283 281 283 286 287 285 280 277 276 276 277 276 276 274 272 271 270 268 264 258 253 250 251 256 264 270 275 279 284 287 290 292 293
246 240 238 245 255 263 267 270 273 278 282 288 293 296 297 298 297 298 304 308 308 304 300 296 296 296 296 294 287 282 281 282 284 287 285 282 279 276 274 274 274 273 273 272 271 270 268 262 255 250 247 249 256 264 270 276 283 288 291 294 294 295
237 237 242 253 261 265 269 273 277 277 280 285 290 293 295 295 295 297 303 306 305 301 295 293 293 294 295 292 286 282 281 282 284 286 286 284 281 277 274 272 272 271 271 271 270 271 269 261 253 250 249 253 260 268 275 283 289 292 294 296 296 296
229 237 247 257 262 266 270 273 275 276 278 282 286 291 292 291 292 295 300 303 302 297 292 291 291 292 293 290 285 282 281 281 283 284 284 284 283 278 273 270 270 269 267 268 269 270 269 263 257 255 255 258 266 274 281 288 292 294 295 296 296 297
229 241 251 259 263 267 270 271 272 273 273 278 285 289 288 287 289 294 298 300 299 294 290 289 289 291 291 288 284 281 281 282 282 282 282 283 283 278 270 265 265 264 264 265 266 267 268 265 260 258 260 265 272 279 285 290 293 295 296 297 297 297
234 245 254 261 266 269 271 271 270 270 270 276 285 288 285 285 289 293 296 297 295 292 289 287 288 290 289 284 281 279 280 282 282 281 281 283 284 280 269 261 260 261 262 264 267 268 269 267 264 264 268 273 279 285 290 292 294 296 297 298 298 299
236 245 253 263 268 270 272 272 271 270 270 276 285 287 284 285 288 292 294 294 292 290 288 286 286 286 284 280 277 278 280 282 281 280 281 284 284 280 270 261 258 260 263 267 270 270 271 270 269 271 275 280 285 289 291 293 295 297 298 299 299 300
236 244 252 261 266 267 271 273 273 273 273 276 284 285 283 284 287 290 292 290 289 287 285 285 285 281 276 274 273 276 279 281 280 280 281 284 283 278 270 260 257 260 265 271 274 274 273 272 273 275 280 283 286 288 291 294 296 298 299 299 300 301
239 246 253 258 261 263 268 271 273 275 274 276 280 282 282 282 285 288 288 287 286 285 285 287 285 277 270 271 272 274 278 280 280 280 282 283 282 276 269 261 257 259 267 272 276 276 274 273 274 277 280 283 285 287 290 293 296 298 299 300 301 302
244 247 252 256 257 261 266 270 273 274 273 273 277 280 280 280 283 284 285 285 285 285 284 285 282 273 269 272 272 274 278 279 280 280 281 283 281 275 269 264 260 261 267 272 274 274 272 272 273 276 280 282 285 288 291 293 296 298 299 300 301 302
244 244 250 255 259 262 265 268 271 272 270 270 275 278 277 278 280 281 282 284 285 285 283 282 277 271 270 272 271 273 277 278 279 279 280 282 280 274 268 264 262 263 268 272 273 272 271 272 275 278 281 283 286 288 291 294 296 298 299 300 301 302
238 241 251 259 262 263 264 266 268 268 265 267 273 275 274 276 276 277 281 283 284 283 282 278 273 269 269 270 271 273 276 277 278 278 279 280 277 273 267 262 261 264 269 272 271 270 270 272 276 280 282 284 287 289 291 294 296 298 299 300 301 302
238 246 255 260 263 263 262 262 263 262 261 265 270 270 271 272 273 276 280 282 282 281 280 274 269 268 269 269 271 273 275 276 276 276 278 278 276 273 268 264 262 265 268 270 270 269 269 271 275 279 282 284 286 289 292 294 296 298 299 300 302 303
243 251 255 257 260 260 258 258 259 259 259 262 265 266 269 270 272 276 279 280 281 281 277 270 267 268 268 269 272 274 274 273 274 275 277 277 275 273 270 267 265 267 270 271 271 270 270 272 276 278 280 283 286 291 294 295 297 298 299 300 302 303
247 249 250 252 254 253 254 256 258 257 255 258 262 264 267 268 270 274 277 280 281 278 274 266 264 267 269 272 274 273 272 272 273 275 276 277 276 273 269 266 266 268 271 272 272 272 273 274 276 278 280 284 288 293 296 298 299 299 299 300 301 302
241 241 244 248 250 251 252 254 256 255 253 256 260 262 264 266 268 273 277 280 278 274 270 263 264 268 271 274 274 273 272 271 273 275 276 278 279 277 272 268 266 268 272 273 274 274 274 275 277 279 282 286 291 294 297 299 299 299 299 300 301 302